Zurück zum Katalog

USA 72 DEB

LostHEO
NORAD 44363·DEBRIS·🇺🇸 United States

Gestartet Nov 8, 1991 von Vandenberg Space Force Base

Loading…

Nächste Überflüge (nächste 24 Stunden)

TLE

VeraltetSource: Space-Track

Epoche: Jul 25, 2019, 07:21 UTC

1 44363U 91076Q   19206.30658898  .00000022  00000-0  00000+0 0  9991
2 44363  63.3758 148.8747 3408017 271.9900  50.1354  5.54637192  1285

Verfolge USA 72 DEB in Echtzeit mit AllMySat

Download on the App Store